TimeEST,TemperatureF,Dew PointF,Humidity,Sea Level PressureIn,VisibilityMPH,Wind Direction,Wind SpeedMPH,Gust SpeedMPH,PrecipitationIn,Events,Conditions,WindDirDegrees,DateUTC
12:22 AM,37.4,37.4,100,30.13,0.2,Calm,Calm,-,N/A,Fog,Fog,0,2013-01-13 05:22:00
12:51 AM,37.9,37.0,97,30.13,0.2,SSE,3.5,-,N/A,Fog,Fog,150,2013-01-13 05:51:00
1:51 AM,37.9,37.0,97,30.14,0.2,SSE,3.5,-,N/A,Fog,Fog,150,2013-01-13 06:51:00
2:23 AM,39.2,37.4,93,30.14,0.2,South,3.5,-,N/A,Fog,Fog,190,2013-01-13 07:23:00
2:51 AM,37.9,37.0,97,30.14,0.2,South,4.6,-,N/A,Fog,Fog,180,2013-01-13 07:51:00
2:58 AM,39.2,37.4,93,30.14,0.2,South,5.8,-,N/A,Fog,Fog,190,2013-01-13 07:58:00
3:16 AM,37.4,37.4,100,30.12,0.2,South,3.5,-,N/A,Fog,Fog,170,2013-01-13 08:16:00
3:22 AM,37.4,37.4,100,30.12,0.2,SSW,3.5,-,N/A,Fog,Fog,200,2013-01-13 08:22:00
3:40 AM,37.4,37.4,100,30.12,0.2,Calm,Calm,-,N/A,Fog,Fog,0,2013-01-13 08:40:00
3:51 AM,37.0,37.0,100,30.11,0.2,Calm,Calm,-,N/A,Fog,Fog,0,2013-01-13 08:51:00
3:58 AM,37.4,37.4,100,30.09,0.2,ESE,4.6,-,N/A,Fog,Fog,110,2013-01-13 08:58:00
4:05 AM,37.4,37.4,100,30.10,0.2,Calm,Calm,-,N/A,Fog,Fog,0,2013-01-13 09:05:00
4:30 AM,37.4,37.4,100,30.09,0.2,Calm,Calm,-,N/A,Fog,Fog,0,2013-01-13 09:30:00
4:51 AM,37.0,36.0,96,30.10,0.2,West,4.6,-,N/A,Fog,Fog,280,2013-01-13 09:51:00
5:19 AM,37.4,37.4,100,30.10,0.2,Calm,Calm,-,N/A,Fog,Fog,0,2013-01-13 10:19:00
5:51 AM,37.9,37.0,97,30.12,0.2,Calm,Calm,-,N/A,Fog,Fog,0,2013-01-13 10:51:00
6:51 AM,39.0,37.9,96,30.12,0.2,SE,3.5,-,N/A,Fog,Fog,130,2013-01-13 11:51:00
7:31 AM,37.4,37.4,100,30.12,0.2,SE,4.6,-,N/A,Fog,Fog,140,2013-01-13 12:31:00
7:35 AM,37.4,37.4,100,30.13,0.2,SE,4.6,-,N/A,Fog,Fog,140,2013-01-13 12:35:00
7:51 AM,39.0,37.9,96,30.14,0.2,SSE,4.6,-,N/A,Fog,Fog,150,2013-01-13 12:51:00
8:02 AM,39.2,37.4,93,30.13,0.1,South,3.5,-,N/A,Fog,Fog,170,2013-01-13 13:02:00
8:22 AM,39.2,39.2,100,30.13,0.1,South,5.8,-,N/A,Fog,Fog,170,2013-01-13 13:22:00
8:42 AM,41.0,39.2,93,30.13,0.1,South,4.6,-,N/A,Fog,Fog,180,2013-01-13 13:42:00
8:51 AM,41.0,39.9,96,30.14,0.1,South,4.6,-,N/A,Fog,Fog,180,2013-01-13 13:51:00
9:51 AM,42.1,41.0,96,30.14,0.1,South,4.6,-,N/A,Fog,Fog,170,2013-01-13 14:51:00
10:23 AM,42.8,41.0,93,30.14,0.1,South,5.8,-,N/A,Fog,Fog,180,2013-01-13 15:23:00
10:51 AM,43.0,41.0,93,30.14,0.1,SSW,6.9,-,N/A,Fog,Fog,200,2013-01-13 15:51:00
11:51 AM,43.0,42.1,97,30.11,0.1,SSE,8.1,-,N/A,Fog,Fog,160,2013-01-13 16:51:00
12:07 PM,42.8,42.8,100,30.09,0.1,SSE,6.9,-,N/A,Fog,Fog,160,2013-01-13 17:07:00
12:30 PM,42.8,42.8,100,30.08,0.1,SSE,5.8,-,N/A,Fog,Fog,160,2013-01-13 17:30:00
12:51 PM,43.0,42.1,97,30.09,0.1,South,5.8,-,N/A,Fog,Fog,190,2013-01-13 17:51:00
1:29 PM,44.6,42.8,93,30.07,0.5,South,5.8,-,N/A,,Overcast,170,2013-01-13 18:29:00
1:37 PM,44.6,42.8,93,30.06,1.0,South,9.2,-,N/A,,Overcast,170,2013-01-13 18:37:00
1:51 PM,44.1,43.0,96,30.06,1.0,South,9.2,-,N/A,,Overcast,180,2013-01-13 18:51:00
2:10 PM,44.6,42.8,93,30.05,2.5,South,9.2,-,N/A,,Overcast,180,2013-01-13 19:10:00
2:24 PM,44.6,42.8,93,30.05,2.5,South,8.1,-,N/A,,Overcast,190,2013-01-13 19:24:00
2:51 PM,46.0,44.1,93,30.04,2.5,SSW,4.6,-,N/A,,Overcast,210,2013-01-13 19:51:00
2:57 PM,46.4,44.6,93,30.04,3.0,SW,5.8,-,N/A,,Overcast,220,2013-01-13 19:57:00
3:51 PM,46.4,42.8,87,30.04,3.0,South,9.2,-,N/A,,Overcast,190,2013-01-13 20:51:00
4:51 PM,46.0,43.0,89,30.03,10.0,South,10.4,-,N/A,,Overcast,180,2013-01-13 21:51:00
5:09 PM,46.4,42.8,87,30.02,10.0,South,12.7,-,N/A,,Overcast,180,2013-01-13 22:09:00
5:27 PM,46.4,42.8,87,30.03,9.0,South,10.4,-,N/A,,Overcast,190,2013-01-13 22:27:00
5:46 PM,46.4,42.8,87,30.03,8.0,South,10.4,-,N/A,,Overcast,190,2013-01-13 22:46:00
5:51 PM,46.0,44.1,93,30.03,7.0,South,8.1,-,N/A,,Overcast,190,2013-01-13 22:51:00
6:51 PM,46.0,44.1,93,30.05,7.0,South,4.6,-,N/A,,Overcast,190,2013-01-13 23:51:00
7:02 PM,44.6,42.8,93,30.03,7.0,SSE,6.9,-,N/A,,Overcast,150,2013-01-14 00:02:00
7:51 PM,46.0,43.0,89,30.04,6.0,South,5.8,-,N/A,,Overcast,170,2013-01-14 00:51:00
8:46 PM,44.6,42.8,93,30.03,2.5,South,9.2,-,N/A,,Overcast,170,2013-01-14 01:46:00
8:51 PM,45.0,44.1,97,30.04,2.0,South,9.2,-,N/A,,Overcast,180,2013-01-14 01:51:00
9:06 PM,44.6,44.6,100,30.01,1.0,South,8.1,-,N/A,,Overcast,170,2013-01-14 02:06:00
9:09 PM,44.6,44.6,100,30.01,0.5,South,8.1,-,N/A,,Overcast,170,2013-01-14 02:09:00
9:15 PM,44.6,44.6,100,30.02,1.0,South,8.1,-,N/A,,Overcast,180,2013-01-14 02:15:00
9:33 PM,44.6,44.6,100,30.00,0.1,South,8.1,-,N/A,,Overcast,170,2013-01-14 02:33:00
9:51 PM,45.0,44.1,97,30.01,0.1,South,6.9,-,N/A,,Overcast,170,2013-01-14 02:51:00
10:19 PM,44.6,44.6,100,30.00,0.5,South,8.1,-,N/A,Fog,Fog,180,2013-01-14 03:19:00
10:51 PM,46.0,45.0,96,30.01,0.5,South,6.9,-,N/A,Fog,Fog,180,2013-01-14 03:51:00
11:51 PM,46.4,44.6,93,30.00,0.5,South,5.8,-,N/A,Fog,Fog,180,2013-01-14 04:51:00